Covington, KY

6:08 AM EDT on April 26, 2017 (GMT -0400)
Cincinnati-Northern KY International

Weather History for KCVG - July, 2013

Change the Weather History Date:

Wednesday, July 24, 2013

  Actual Average Record
Temperature  
Mean Temperature 69 °F 76 °F  
Max Temperature 79 °F 86 °F 106 °F (1934)
Min Temperature 59 °F 66 °F 54 °F (1947)
Degree Days  
Heating Degree Days 0 0  
Month to date heating degree days 0 0  
Since 1 June heating degree days 1 15  
Since 1 July heating degree days 0 0  
Cooling Degree Days 4 11  
Month to date cooling degree days 280 262  
Year to date cooling degree days 658 582  
Since 1 June cooling degree days 519 488  
Growing Degree Days 19 (Base 50)    
Moisture  
Dew Point 59 °F    
Average Humidity 74    
Maximum Humidity 93    
Minimum Humidity 54    
Precipitation  
Precipitation 0.00 in 0.13 in 2.56 in (1978)
Month to date precipitation 5.05 2.90  
Year to date precipitation 28.95 25.52  
Snow  
Snow 0.00 in 0.00 in 0.00 in ()
Month to date snowfall 0.0 0.0  
Since 1 June snowfall 0.0 0.0  
Since 1 July snowfall 0.0 0.0  
Snow Depth 0.00 in    
Sea Level Pressure  
Sea Level Pressure 29.91 in    
Wind  
Wind Speed 10 mph (North)    
Max Wind Speed 17 mph    
Max Gust Speed 23 mph    
Visibility 10 miles    
Events      
T = Trace of Precipitation, MM = Missing Value Source: NWS Daily Summary

Daily Weather History Graph

Daily Weather History Graph

Search for Another Location

Airport or City:

Trip Planner

Search our weather history database for the weather conditions in past years. The results will help you decide how hot, cold, wet, or windy it might be!

Date:

Astronomy

Jul. 24, 2013 Rise Set
Actual Time 6:32 AM EDT 8:57 PM EDT
Civil Twilight 6:02 AM EDT 9:27 PM EDT
Nautical Twilight 5:24 AM EDT 10:05 PM EDT
Astronomical Twilight 4:42 AM EDT 10:46 PM EDT
Moon 10:04 PM EDT (7/24) 8:50 AM EDT (7/24)
Length of Visible Light 15h 25m
Length of Day
14h 24m
Waning Gibbous, 95% of the Moon is Illuminated
Jul 24
Waning Gibbous
Jul 29
Last Quarter
Aug 6
New
Aug 14
First Quarter
Aug 20
Full

Hourly Weather History & Observations

Time (EDT) Temp. Dew Point Humidity Pressure Visibility Wind Dir Wind Speed Gust Speed Precip Events Conditions
12:52 AM 70.0 °F 64.0 °F 81% 29.83 in 10.0 mi North 10.4 mph - N/A   Partly Cloudy
1:52 AM 69.1 °F 62.1 °F 78% 29.84 in 10.0 mi NNW 8.1 mph - N/A   Mostly Cloudy
2:52 AM 66.9 °F 57.9 °F 73% 29.83 in 10.0 mi North 16.1 mph - N/A   Mostly Cloudy
3:52 AM 64.9 °F 57.0 °F 75% 29.85 in 10.0 mi NNW 9.2 mph - N/A   Scattered Clouds
4:52 AM 63.0 °F 57.0 °F 81% 29.85 in 10.0 mi NNW 11.5 mph 19.6 mph N/A   Partly Cloudy
5:52 AM 61.0 °F 57.0 °F 87% 29.86 in 10.0 mi NNW 12.7 mph 21.9 mph N/A   Scattered Clouds
6:52 AM 59.0 °F 57.0 °F 93% 29.88 in 10.0 mi North 9.2 mph - N/A   Mostly Cloudy
7:52 AM 61.0 °F 57.0 °F 87% 29.89 in 10.0 mi North 9.2 mph - N/A   Mostly Cloudy
8:40 AM 62.6 °F 57.2 °F 82% 29.93 in 10.0 mi North 9.2 mph - N/A   Mostly Cloudy
8:52 AM 63.0 °F 57.9 °F 84% 29.91 in 10.0 mi North 10.4 mph - N/A   Mostly Cloudy
9:22 AM 64.4 °F 57.2 °F 77% 29.93 in 10.0 mi North 11.5 mph - N/A   Mostly Cloudy
9:52 AM 66.9 °F 59.0 °F 76% 29.91 in 10.0 mi North 10.4 mph - N/A   Mostly Cloudy
10:07 AM 66.2 °F 59.0 °F 78% 29.94 in 10.0 mi NNE 10.4 mph - N/A   Overcast
10:52 AM 68.0 °F 60.1 °F 76% 29.93 in 10.0 mi North 6.9 mph - N/A   Overcast
11:52 AM 71.1 °F 61.0 °F 70% 29.93 in 10.0 mi North 10.4 mph - N/A   Overcast
12:52 PM 71.1 °F 61.0 °F 70% 29.94 in 10.0 mi ENE 4.6 mph - N/A   Overcast
1:52 PM 73.0 °F 62.1 °F 68% 29.94 in 10.0 mi North 6.9 mph - N/A   Mostly Cloudy
2:52 PM 77.0 °F 61.0 °F 58% 29.93 in 10.0 mi NE 6.9 mph - N/A   Scattered Clouds
3:52 PM 78.1 °F 60.1 °F 54% 29.93 in 10.0 mi NNE 9.2 mph - N/A   Scattered Clouds
4:52 PM 77.0 °F 59.0 °F 54% 29.92 in 10.0 mi North 9.2 mph - N/A   Scattered Clouds
5:52 PM 75.9 °F 60.1 °F 58% 29.92 in 10.0 mi North 9.2 mph - N/A   Scattered Clouds
6:52 PM 75.9 °F 59.0 °F 56% 29.92 in 10.0 mi NNW 12.7 mph - N/A   Partly Cloudy
7:52 PM 75.0 °F 59.0 °F 57% 29.94 in 10.0 mi North 9.2 mph 18.4 mph N/A   Scattered Clouds
8:52 PM 71.1 °F 57.9 °F 63% 29.95 in 10.0 mi North 9.2 mph - N/A   Scattered Clouds
9:52 PM 69.1 °F 57.0 °F 65% 29.96 in 10.0 mi North 9.2 mph - N/A   Clear
10:52 PM 68.0 °F 55.0 °F 63% 29.98 in 10.0 mi NNE 11.5 mph - N/A   Clear
11:52 PM 66.9 °F 54.0 °F 63% 29.99 in 10.0 mi NE 10.4 mph - N/A   Partly Cloudy